This is the latest recevied weather packets stored in our database for station/object KY4EF. If no packets are shown the sender has not sent any weather packets the latest 10 day(s).
| Time | Temp. | Humidity | Pressure | Rain* | Wind** | Luminosity | Snow |
|---|---|---|---|---|---|---|---|
| 1777526909 | 15° C | 90% | 1011.1 hPa | 0 mm | - | 0 W/m² | - |
| 1777526604 | 15° C | 89% | 1011.2 hPa | 0 mm | - | 0 W/m² | - |
| 1777526299 | 15° C | 88% | 1011.3 hPa | 0 mm | - | 0 W/m² | - |
| 1777525995 | 15.56° C | 89% | 1011.4 hPa | 0 mm | - | 0 W/m² | - |
| 1777525693 | 15.56° C | 89% | 1011.7 hPa | 0 mm | - | 0 W/m² | - |
| 1777525390 | 15.56° C | 89% | 1011.4 hPa | 0 mm | - | 0 W/m² | - |
| 1777525086 | 15.56° C | 89% | 1011.5 hPa | 0 mm | - | 0 W/m² | - |
| 1777524783 | 15.56° C | 87% | 1011.7 hPa | 0 mm | - | 0 W/m² | - |
| 1777524481 | 15.56° C | 89% | 1011.7 hPa | 0 mm | - | 0 W/m² | - |
| 1777524177 | 15.56° C | 89% | 1011.9 hPa | 0 mm | - | 0 W/m² | - |
| 1777523873 | 15.56° C | 87% | 1011.8 hPa | 0 mm | - | 0 W/m² | - |
| 1777523570 | 15.56° C | 88% | 1011.7 hPa | 0 mm | - | 0 W/m² | - |
| 1777523266 | 15.56° C | 88% | 1011.7 hPa | 0 mm | - | 0 W/m² | - |
| 1777522962 | 15.56° C | 86% | 1011.9 hPa | 0 mm | - | 0 W/m² | - |
| 1777522659 | 15.56° C | 89% | 1011.8 hPa | 0 mm | - | 0 W/m² | - |
| 1777522356 | 16.11° C | 85% | 1011.9 hPa | 0 mm | - | 0 W/m² | - |
| 1777522053 | 16.11° C | 85% | 1012.2 hPa | 0 mm | - | 0 W/m² | - |
| 1777521750 | 15.56° C | 86% | 1011.9 hPa | 0 mm | - | 0 W/m² | - |
| 1777521446 | 16.11° C | 87% | 1012 hPa | 0 mm | - | 0 W/m² | - |
| 1777521143 | 16.11° C | 86% | 1011.8 hPa | 0 mm | - | 0 W/m² | - |
| 1777520841 | 16.11° C | 87% | 1012.4 hPa | 0 mm | - | 0 W/m² | - |
| 1777520537 | 16.11° C | 88% | 1012.4 hPa | 0 mm | - | 0 W/m² | - |
| 1777520234 | 16.11° C | 88% | 1012.2 hPa | 0 mm | - | 0 W/m² | - |
| 1777519933 | 16.11° C | 88% | 1012.5 hPa | 0 mm | - | 0 W/m² | - |
| 1777519629 | 16.11° C | 89% | 1012.5 hPa | 0 mm | - | 0 W/m² | - |
* Rain latest hour (hover to see other rain measurements)
** Current wind speed in m/s (hover to see current wind gust speed)